Flag for Poland Weather past 2 weeks in Toruń, Poland

Now
73 °F

Partly sunny.


Feels Like: 77 °F
Forecast: 56 / 74 °F
Wind: 2 mph from West

Location: Torun

Current Time: Aug 30, 2014 at 5:13:58 PM

Latest Report: Aug 30, 2014 at 4:00 PM


Visibility: 18 mi

Pressure: 29.99 "Hg

Humidity: 47%

Dew point: 52 °F

Location of ToruńLocation

Historic Weather in Toruń — Graph

°F

Toruń temperature yesterday

Maximum temperature yesterday: 74 °F (at 2:00 PM)
Minimum temperature yesterday: 43 °F (at 6:00 AM)
Average temperature yesterday: 61 °F

Past Weeks' High & Low Weather Summary

 TemperatureHumidityPressure
High74 °F (Aug 29, 2:00 PM)99% (Aug 16, 1:00 AM)30.06 "Hg (Aug 16, 1:00 AM)
Low41 °F (Aug 22, 6:00 AM)30% (Aug 22, 5:00 PM)29.66 "Hg (Aug 18, 6:00 PM)
Average58 °F74%29.89 "Hg
* Reported Aug 15 4:00 PM — Aug 30 3:00 PM, Toruń, Weather by CustomWeather, © 2014

Note: Actual official high and low records may vary slightly from our data, if they occured in-between our weather recording intervals... More about our weather records

Advertising

Toruń weather history for previous 24 hours

 ConditionsComfort  
Time TempWeatherWind HumidityBarometerVisibility
3:00 PM
Aug 30
72 °FOvercast.3 mph52%30.00 "Hg25 mi
2:00 PM72 °FPartly sunny.3 mph49%30.00 "Hg22 mi
1:00 PM72 °FPartly sunny.2 mph55%30.00 "Hg19 mi
12:00 PM69 °FPartly sunny.2 mph64%30.01 "Hg17 mi
11:00 AM65 °FPartly sunny.2 mph79%30.01 "Hg9 mi
10:00 AM63 °FLow clouds.3 mph85%30.01 "Hg7 mi
9:00 AM62 °FFog.2 mph88%30.00 "Hg6 mi
8:00 AM61 °FFog.2 mph93%29.99 "Hg4 mi
7:00 AM59 °FFog.1 mph95%29.98 "Hg2 mi
6:00 AM60 °FFog.1 mph95%29.98 "Hg2 mi
5:00 AM60 °FFog.1 mph95%29.96 "Hg2 mi
4:00 AM60 °FFog.1 mph94%29.96 "Hg2 mi
3:00 AM60 °FOvercast.1 mph94%29.96 "Hg3 mi
2:00 AM60 °FFog.No wind94%29.96 "Hg3 mi
1:00 AM60 °FOvercast.No wind92%29.96 "Hg3 mi
12:00 AM60 °FSprinkles. Overcast.1 mph89%29.97 "Hg8 mi
11:00 PM
Aug 29
65 °FSprinkles. Overcast.2 mph66%29.97 "Hg17 mi
9:00 PM62 °FOvercast.No wind69%29.96 "Hg25 mi
8:00 PM65 °FOvercast.1 mph61%29.96 "Hg31 mi
7:00 PM68 °FOvercast.No wind52%29.96 "Hg28 mi
6:00 PM72 °FOvercast.1 mph39%29.96 "Hg28 mi
5:00 PM74 °FOvercast.2 mph31%29.97 "Hg25 mi
Weather by CustomWeather, © 2014

See weather overviewHow to use our weather pages